Theta_e
305 300 297 299 301 301 301 300 300 303 306 304 304 304 307 310 311 311 312 312 313 313 316 319 324 331 344 356 358 358 356 359 349 353 355 351 351 343 345 346 352 353 353 351
301 296 302 303 302 300 300 300 299 303 305 305 304 304 308 309 310 311 312 313 313 314 315 319 329 340 348 355 353 356 356 358 348 350 352 345 342 350 347 344 346 342 344 344
299 300 303 301 299 298 299 299 299 299 303 305 303 301 304 308 310 311 312 313 314 315 314 320 326 331 343 347 346 353 355 353 347 347 348 351 347 346 346 346 347 342 343 338
301 304 301 299 298 300 297 302 301 301 299 295 304 294 304 307 307 309 311 311 314 316 316 320 324 328 334 334 334 344 356 346 345 341 340 343 337 335 332 332 349 347 345 347
299 300 300 299 299 303 300 304 302 301 299 299 299 297 301 307 304 307 310 311 315 316 319 320 321 324 327 330 330 344 354 352 346 348 345 345 343 337 336 345 352 352 353 353
303 307 304 302 304 304 305 302 302 302 300 293 298 297 298 302 305 307 311 313 315 317 318 321 323 324 325 326 328 335 340 346 356 352 351 352 350 347 343 350 347 346 347 348
300 301 304 305 301 304 303 300 292 291 291 291 300 297 300 305 308 309 311 312 315 317 320 321 323 325 325 324 326 327 333 339 346 353 355 354 357 354 356 356 348 344 351 346
293 291 301 304 302 298 301 300 294 288 289 292 299 294 300 307 311 312 311 313 316 317 320 321 325 326 326 325 326 329 330 336 344 346 351 353 354 353 353 357 358 349 348 348
295 294 303 304 305 304 300 297 303 296 298 293 295 300 306 309 309 309 310 313 315 317 319 321 325 328 329 331 331 334 336 339 345 347 349 350 352 351 352 357 356 350 351 340
301 295 302 303 305 305 302 303 296 297 289 287 293 295 296 303 306 309 310 312 315 316 318 322 325 329 332 335 337 339 339 341 346 348 348 347 344 348 352 350 347 345 342 338
305 301 299 302 300 298 300 298 300 300 297 290 289 292 306 305 307 309 311 313 314 315 316 318 322 326 328 330 331 333 334 336 338 341 343 342 341 340 340 339 337 339 340 337
305 302 295 299 305 306 304 301 301 296 294 294 294 293 309 310 310 311 311 313 315 316 317 318 319 320 322 324 326 328 330 328 330 332 333 334 335 336 337 336 336 337 337 336
305 301 294 295 300 306 302 303 304 302 300 297 292 294 308 311 310 312 312 313 314 316 317 318 318 319 320 321 322 322 323 323 326 328 330 332 332 333 334 334 334 333 333 332
309 303 298 292 293 299 298 301 302 301 298 296 296 297 305 307 309 310 312 313 314 315 316 315 316 318 319 320 319 319 320 321 321 322 324 325 325 326 327 327 327 328 328 327
306 298 301 300 299 297 296 299 301 299 300 296 298 299 301 305 305 306 308 308 308 310 312 314 315 316 319 321 319 318 318 318 318 317 318 319 319 321 320 320 322 323 323 323
305 297 299 297 300 298 295 299 300 300 301 300 300 299 305 305 307 307 308 309 308 309 310 312 315 315 315 315 316 315 315 314 314 313 312 313 314 315 317 317 318 319 318 319
300 298 296 291 295 294 291 295 296 298 299 299 294 300 306 304 305 306 307 307 308 310 311 312 312 313 313 313 313 312 312 313 312 312 312 312 312 312 313 314 314 315 318 319
297 297 297 291 292 284 297 301 300 298 299 300 300 303 305 305 306 307 308 306 307 308 309 310 310 310 313 312 312 312 312 312 311 311 311 311 311 310 311 311 311 315 315 316
301 298 294 290 289 293 295 299 299 297 298 303 300 302 304 305 306 304 308 307 308 308 309 310 311 310 311 311 312 311 311 311 310 310 310 310 309 309 308 308 310 312 312 313
299 300 296 291 283 284 298 302 304 303 294 304 304 302 301 303 299 299 306 307 306 307 307 308 310 310 310 311 311 310 309 308 307 308 308 308 308 307 307 308 309 309 309 309
292 293 291 290 288 293 301 303 304 292 295 304 304 303 303 302 303 305 307 307 307 307 308 310 310 309 310 310 310 307 307 306 307 307 307 307 307 307 308 308 309 308 307 305
292 291 291 292 288 285 303 301 295 304 307 304 303 303 301 303 305 306 306 306 305 306 306 307 306 306 307 307 306 305 304 306 306 306 305 305 306 306 306 305 305 304 302 300
292 297 294 295 295 305 306 305 308 307 305 303 303 303 304 304 304 304 304 304 305 305 305 305 303 303 304 304 305 303 304 305 304 304 304 304 303 301 301 299 298 297 299 296
297 302 297 296 300 302 304 306 306 305 303 304 304 304 304 302 303 302 302 302 301 302 302 302 302 301 302 303 304 304 303 303 302 301 299 298 297 297 294 294 295 293 293 293
298 300 296 296 300 301 302 302 303 303 304 303 303 303 302 301 300 299 299 300 300 301 301 301 300 299 300 301 302 302 300 297 295 294 294 293 291 291 292 292 293 292 295 295
300 296 294 294 301 302 301 302 303 301 301 301 300 300 300 299 298 299 298 299 298 297 298 297 297 297 297 297 296 295 294 292 290 288 288 289 289 289 290 290 291 293 292 292
Wind_Speed
22 18 21 22 23 21 15 18 20 16 10 7 12 12 14 11 14 9 9 10 13 14 15 20 16 8 12 8 11 12 8 11 4 3 3 4 3 2 7 12 10 2 2 4
16 22 22 20 20 20 21 14 11 10 11 9 13 15 11 13 12 9 7 7 10 11 16 18 9 11 14 12 9 13 13 12 5 1 4 1 3 5 6 7 10 3 3 3
18 15 21 20 18 19 19 18 15 13 12 11 12 15 18 15 8 7 6 7 5 7 14 15 17 14 16 16 16 16 16 15 12 5 1 8 6 1 7 8 9 11 17 8
19 19 17 15 20 19 18 17 16 12 11 13 19 13 12 9 5 10 5 3 7 10 11 19 17 19 17 17 17 15 18 19 13 16 13 19 15 10 10 8 11 14 17 12
17 18 12 19 19 19 16 11 15 17 16 15 16 9 11 15 9 11 7 3 6 4 8 9 12 12 15 16 11 15 21 25 24 23 19 16 19 14 10 6 10 11 12 15
20 16 18 16 17 16 14 13 10 11 12 15 17 15 14 12 13 12 11 5 5 4 2 4 4 7 11 13 12 13 12 11 19 24 25 23 19 14 11 8 10 11 10 10
19 17 18 16 19 18 19 11 12 13 14 13 17 18 14 7 5 5 9 4 3 5 7 7 8 9 8 10 12 7 12 13 13 16 18 15 13 15 15 10 12 11 9 7
11 15 17 13 19 19 20 16 14 14 12 14 21 13 8 4 13 6 3 2 1 5 9 8 9 7 7 4 6 9 10 12 14 13 12 10 13 9 11 10 8 11 11 12
18 18 16 20 16 16 17 18 18 18 13 8 6 8 9 9 12 8 6 2 4 4 6 8 9 9 7 6 3 6 6 9 11 12 10 10 9 11 11 11 6 7 6 9
8 13 15 12 17 20 21 14 12 9 15 15 14 18 8 14 13 11 9 6 3 2 6 8 8 8 9 9 8 7 3 4 9 5 5 8 10 8 8 8 9 7 5 6
18 10 6 5 13 18 16 20 11 15 12 11 14 3 2 6 13 11 7 7 4 1 6 8 9 9 12 11 12 10 10 11 8 8 7 6 6 8 9 9 8 7 5 4
18 9 12 19 10 5 14 9 19 12 17 3 11 3 7 6 3 3 5 7 4 4 3 7 8 8 9 10 11 10 11 11 8 7 6 5 6 6 5 4 5 5 5 5
4 7 8 6 13 15 12 20 16 11 4 13 8 1 11 4 5 5 2 5 6 2 2 3 3 5 7 7 9 10 10 10 9 11 9 10 9 8 7 5 5 3 4 6
8 6 9 6 3 10 14 18 14 12 9 9 11 11 19 8 3 5 4 5 4 6 9 5 2 3 5 4 6 7 8 9 8 7 7 6 5 5 4 3 4 5 6 8
3 8 13 10 9 7 14 9 13 13 10 13 13 16 18 18 5 7 9 11 13 11 12 11 6 8 7 5 2 6 8 7 7 8 6 5 3 4 4 5 6 7 8 10
4 7 5 11 12 9 14 12 11 10 13 12 13 13 11 7 9 8 8 8 10 12 13 12 7 7 8 7 7 6 6 6 5 6 3 4 7 7 7 9 9 10 11 12
5 7 6 10 2 4 11 14 17 15 14 11 12 4 11 4 5 5 5 4 9 10 9 8 8 7 6 5 6 6 6 6 6 6 7 6 7 9 8 10 11 12 11 12
5 7 3 7 4 8 10 4 6 6 2 1 2 4 6 4 4 3 10 9 8 8 8 7 6 4 2 4 4 7 7 8 8 9 9 10 11 12 12 13 14 12 12 13
5 4 3 4 7 7 7 3 2 2 8 8 3 8 3 3 4 4 8 6 6 4 4 3 3 4 6 6 6 8 10 10 11 12 12 12 12 13 14 14 14 13 13 13
6 6 2 4 3 4 10 8 3 1 5 5 3 9 4 7 9 6 4 4 4 5 6 7 7 8 8 8 8 10 11 12 13 13 13 13 14 14 15 15 16 14 14 16
5 3 8 6 4 5 7 6 1 6 6 7 5 5 2 4 4 5 5 6 7 7 7 8 8 11 10 10 10 12 13 14 13 14 14 14 14 15 15 15 14 13 12 13
7 6 5 4 5 7 5 3 5 6 3 2 6 6 0 5 5 7 7 7 9 9 10 10 11 12 12 12 12 13 14 13 13 14 15 15 15 12 12 14 12 12 12 13
5 3 3 6 2 5 4 3 3 4 5 8 4 3 5 7 8 9 10 11 11 12 12 11 12 13 13 13 11 13 13 14 14 15 15 14 15 13 12 13 13 11 11 9
2 5 4 3 5 6 2 4 3 3 3 2 4 5 7 9 10 11 11 12 13 13 13 12 12 13 13 13 13 13 14 14 14 15 15 13 12 13 13 9 9 9 9 10
5 4 5 8 6 6 6 4 3 2 3 4 7 9 10 10 10 12 12 13 12 12 13 14 14 15 17 15 14 12 13 12 13 14 13 13 9 10 11 9 9 10 11 9
5 5 4 2 5 3 6 1 5 7 7 7 9 10 10 10 12 12 10 13 15 15 15 15 16 16 15 15 14 12 12 12 12 11 8 8 8 8 8 8 10 11 15 19
Wind_Direction
196 209 211 212 220 235 245 258 226 205 206 214 255 262 267 271 275 269 253 236 249 237 230 219 218 193 180 157 148 176 168 173 124 180 211 230 184 2 340 274 279 14 175 72
179 219 223 224 221 228 246 245 245 251 236 237 263 250 261 280 260 268 311 252 239 232 218 208 141 171 182 160 157 186 179 151 115 97 219 183 232 161 133 190 228 86 31 230
208 216 224 220 220 219 232 230 226 242 219 220 266 265 252 244 230 249 256 288 306 231 208 192 156 185 175 174 168 174 179 154 151 153 248 247 202 124 167 208 176 193 202 232
213 224 209 204 222 209 218 214 239 243 250 248 226 252 238 192 195 201 215 281 2 346 199 205 190 167 180 176 174 169 173 156 156 189 185 235 243 228 231 225 179 180 202 221
211 237 201 205 214 207 233 212 220 225 232 248 254 246 271 169 204 230 161 157 75 12 9 339 324 310 199 201 188 178 169 176 187 194 205 213 221 227 239 188 188 193 185 198
228 208 211 219 223 221 229 239 236 243 236 230 234 246 235 234 187 201 130 97 53 26 41 13 337 293 272 282 204 182 199 196 193 188 199 221 213 224 233 194 197 193 187 197
211 209 217 223 216 196 228 198 216 214 217 235 223 220 242 75 85 100 84 74 53 349 49 15 18 345 318 232 262 219 208 230 212 210 216 201 207 204 229 194 214 186 174 205
230 216 202 187 236 205 207 215 247 210 207 227 199 223 200 116 100 97 125 64 31 20 26 14 25 6 346 317 244 224 204 209 209 216 221 208 217 218 221 196 209 199 179 192
205 218 216 225 219 240 212 215 240 271 276 263 307 237 130 156 149 163 162 164 69 59 46 22 39 21 32 28 342 247 208 191 192 200 207 208 198 198 209 194 195 212 179 153
246 231 206 204 213 220 239 233 219 230 257 238 205 205 247 164 181 160 158 137 109 85 65 62 41 64 63 70 58 49 20 136 111 103 192 197 205 200 168 157 186 160 179 159
219 215 256 118 229 211 206 230 223 255 239 257 255 115 355 40 1 157 135 115 139 74 75 79 70 46 57 66 70 71 81 87 95 127 146 157 163 145 156 154 174 144 144 193
225 237 179 205 316 17 260 265 220 233 213 162 307 42 300 172 216 81 135 134 100 344 67 94 104 73 74 68 84 63 42 52 66 90 104 109 116 120 118 140 148 148 181 208
274 214 218 208 238 228 234 200 214 244 301 257 252 150 346 239 182 124 261 133 155 222 278 319 22 79 58 47 74 63 60 49 38 28 64 41 32 47 43 28 20 339 275 260
256 233 244 248 148 337 249 230 237 263 263 255 235 193 214 215 166 151 184 246 268 319 309 258 333 280 91 81 54 72 63 62 53 61 64 61 47 42 26 0 307 285 278 278
282 259 230 154 150 211 268 280 255 228 252 244 267 278 190 199 305 325 317 300 294 282 263 272 270 24 353 84 11 49 55 54 53 23 28 25 8 357 340 328 317 303 299 289
201 270 288 267 204 176 274 274 275 248 222 233 247 283 299 327 14 332 324 329 316 294 274 273 56 63 39 24 47 38 66 44 25 22 346 330 318 324 322 310 299 287 283 284
251 259 215 260 290 348 264 242 236 240 242 251 253 337 39 2 20 358 331 9 353 8 22 49 54 59 33 32 8 23 7 358 353 326 311 298 290 287 287 293 290 285 286 286
232 231 195 274 124 227 67 32 355 343 356 265 291 349 20 16 76 65 37 37 39 22 29 36 51 50 14 346 9 335 341 333 323 312 307 309 307 307 307 303 298 298 290 283
290 238 205 249 215 280 163 158 45 321 147 109 49 32 63 23 328 170 68 15 8 1 328 332 333 314 314 308 330 326 320 318 314 311 311 312 315 308 299 295 295 292 291 290
194 264 196 207 234 266 85 79 36 160 174 16 168 114 160 230 256 81 165 190 199 211 231 265 292 299 293 309 321 312 307 309 307 309 312 311 305 300 298 297 299 299 293 290
174 179 207 212 227 285 101 115 40 239 85 84 47 75 59 311 6 184 287 326 321 312 298 290 289 282 299 304 310 302 300 297 306 309 303 300 301 299 295 292 293 301 308 302
166 193 188 213 200 245 124 154 258 48 98 20 78 97 192 261 243 232 240 245 258 277 287 293 296 301 306 306 302 296 297 306 306 304 302 300 300 301 310 313 305 304 305 301
204 254 201 192 233 110 63 48 44 335 25 53 355 60 283 299 303 319 322 315 302 300 300 301 299 306 304 296 298 300 302 307 303 300 300 305 317 311 307 313 305 288 284 294
224 183 246 201 230 86 135 76 63 42 56 36 286 314 321 315 314 310 307 309 308 304 304 307 305 298 305 308 305 301 302 309 312 309 312 311 307 318 307 289 297 301 286 281
82 188 240 252 222 183 108 75 9 338 342 333 328 326 315 314 319 320 311 311 312 318 324 324 316 307 297 301 305 319 332 333 319 312 309 308 298 287 298 289 294 286 282 282
224 231 237 287 21 333 99 194 45 347 339 340 323 319 314 319 303 301 318 324 321 321 316 308 300 302 316 316 317 330 330 326 310 300 292 292 297 297 292 290 289 271 258 270